N2VSB-13 Weather Reports


time (UTC)temp
C
wind
direction
speed
KPH
gust
KPH
rain 1hr
cm
rain 24hr
cm
rain mn
cm
humidity
%
barometer
mb
20260507015532 7 0.0 0.0 0.03 2.01 1.93 99 1010.2
20260507014536 7 340 0.0 1.6 0.05 2.01 1.93 99 1010.3
20260507013537 7 0.0 0.0 0.05 2.01 1.93 99 1010.2
20260507012517 7 257 0.0 3.2 0.05 1.98 1.93 99 1010.1
20260507011533 7 307 0.0 3.2 0.05 1.98 1.91 99 1009.9
20260507010532 7 170 0.0 1.6 0.03 1.98 1.91 99 1009.9
20260507005518 7 172 0.0 1.6 0.03 1.98 1.91 99 1009.8
20260507004518 7 134 0.0 3.2 0.03 1.98 1.88 99 1009.7
20260507003518 7 166 0.0 1.6 0.03 1.96 1.88 99 1009.7
20260507002518 7 199 0.0 1.6 0.03 1.96 1.85 99 1009.3
20260507001518 7 221 0.0 3.2 0.03 1.96 1.85 99 1009.1
20260507000519 7 168 1.6 3.2 0.03 1.96 1.85 99 1009.1
20260506235519 7 186 1.6 3.2 0.03 1.96 1.85 99 1008.8
20260506234519 7 291 0.0 3.2 0.03 1.93 1.85 99 1008.6
20260506233519 7 211 1.6 3.2 0.03 1.93 1.85 99 1008.4
20260506232519 8 188 1.6 3.2 0.00 1.93 1.83 99 1008.2
20260506231519 8 199 1.6 3.2 0.00 1.91 1.83 99 1008.2
20260506230519 8 24 0.0 3.2 0.00 1.91 1.83 99 1008.1
20260506225540 8 4 1.6 4.8 0.00 1.93 1.83 99 1007.9
20260506224520 8 356 0.0 3.2 0.00 1.93 1.83 99 1007.7
20260506223540 8 168 0.0 3.2 0.00 1.93 1.83 99 1007.4
20260506222520 8 223 0.0 3.2 0.00 1.93 1.83 99 1007.3
20260506221520 8 12 1.6 4.8 0.00 1.93 1.83 100 1007.0
20260506220520 8 6 1.6 4.8 0.00 1.93 1.83 100 1006.7
20260506215521 8 35 3.2 6.4 0.00 1.93 1.83 100 1006.6
20260506214521 8 153 3.2 6.4 0.03 1.91 1.83 100 1006.5
20260506213521 8 329 3.2 6.4 0.15 1.91 1.80 100 1006.5
20260506212521 8 271 3.2 6.4 0.15 1.91 1.80 100 1006.2
20260506211522 8 40 3.2 6.4 0.18 1.91 1.80 100 1006.0
20260506210522 8 22 3.2 6.4 0.18 1.91 1.80 99 1005.9
20260506205519 8 360 4.8 9.7 0.18 1.91 1.80 99 1005.5
20260506204522 9 65 3.2 6.4 0.15 1.91 1.80 99 1005.3
20260506203522 10 146 3.2 4.8 0.03 1.75 1.68 98 1005.1
20260506202523 10 33 3.2 8.0 0.00 1.75 1.65 98 1005.2
20260506201600 11 121 4.8 8.0 0.00 1.75 1.65 98 1004.7
20260506200523 13 251 3.2 4.8 0.03 1.75 1.65 99 1004.9
20260506195540 16 132 3.2 8.0 0.03 1.75 1.65 100 1004.9
20260506194523 16 253 1.6 4.8 0.08 1.75 1.65 100 1004.9
20260506193520 16 297 4.8 9.7 0.13 1.75 1.65 100 1005.0
20260506192523 16 275 1.6 6.4 0.18 1.75 1.65 100 1005.0
20260506191543 16 268 3.2 6.4 0.23 1.73 1.63 100 1005.0
20260506190523 16 302 3.2 8.0 0.25 1.73 1.63 100 1005.0
20260506185524 16 39 1.6 4.8 0.25 1.70 1.60 100 1005.1
20260506184541 16 344 4.8 9.7 0.23 1.68 1.57 99 1005.1
20260506183524 16 356 3.2 6.4 0.18 1.60 1.52 99 1005.2
20260506182521 16 343 6.4 14.5 0.18 1.55 1.45 99 1005.3
20260506181521 16 338 6.4 14.5 0.23 1.50 1.42 99 1005.3
20260506180521 16 334 8.0 14.5 0.23 1.47 1.37 100 1005.3
20260506175602 16 313 6.4 12.9 0.28 1.45 1.35 99 1005.2
20260506174525 15 307 3.2 8.0 0.33 1.45 1.35 99 1005.3
20260506173525 15 285 1.6 6.4 0.36 1.42 1.35 99 1005.6
20260506172525 15 294 3.2 6.4 0.33 1.37 1.27 99 1005.6
20260506171525 15 65 1.6 3.2 0.28 1.30 1.19 99 1005.8
20260506170525 14 1 1.6 4.8 0.25 1.24 1.14 99 1005.8
20260506165545 14 345 1.6 3.2 0.23 1.17 1.07 100 1005.9
20260506164526 13 34 1.6 3.2 0.23 1.12 1.02 100 1005.9
20260506163526 13 28 3.2 4.8 0.25 1.07 0.97 100 1006.1
20260506162547 13 201 1.6 1.6 0.25 1.04 0.94 100 1006.1
20260506161526 13 198 1.6 3.2 0.25 1.02 0.91 100 1006.2
20260506160526 13 204 1.6 3.2 0.25 0.97 0.86 100 1006.5
20260506155526 13 47 1.6 4.8 0.25 0.94 0.84 100 1006.7
20260506154527 13 209 1.6 3.2 0.25 0.86 0.76 100 1006.8
20260506153527 13 215 1.6 3.2 0.25 0.81 0.74 100 1006.8
20260506152527 13 213 1.6 1.6 0.28 0.79 0.69 100 1006.8
20260506151528 12 216 1.6 1.6 0.28 0.76 0.66 100 1007.0
20260506150527 12 203 1.6 3.2 0.28 0.71 0.61 100 1007.0
20260506145527 12 153 0.0 1.6 0.28 0.69 0.58 99 1007.3
20260506144528 12 198 0.0 1.6 0.23 0.64 0.53 99 1007.4
20260506143528 12 161 0.0 1.6 0.20 0.58 0.48 99 1007.7
20260506142548 12 151 0.0 0.0 0.18 0.51 0.41 99 1007.7
20260506141528 12 170 1.6 1.6 0.13 0.46 0.36 99 1007.7
20260506140528 12 164 1.6 3.2 0.18 0.43 0.33 99 1007.9
20260506135608 12 0.0 0.0 0.18 0.41 0.30 99 1007.8
20260506134528 12 187 0.0 1.6 0.25 0.38 0.28 99 1007.4
20260506133529 12 178 0.0 1.6 0.25 0.38 0.28 99 1007.4
20260506132529 12 200 0.0 1.6 0.25 0.33 0.25 99 1007.4
20260506131529 12 252 1.6 3.2 0.23 0.33 0.23 99 1007.6
20260506130529 12 179 0.0 1.6 0.18 0.28 0.18 99 1007.6
20260506125529 12 173 1.6 3.2 0.13 0.23 0.13 99 1007.4
20260506124529 12 183 1.6 1.6 0.05 0.15 0.05 98 1007.6
20260506123530 12 171 1.6 1.6 0.00 0.10 0.00 98 1008.1
20260506122550 12 215 1.6 4.8 0.00 0.10 0.00 98 1008.3
20260506121550 12 195 1.6 1.6 0.00 0.10 0.00 98 1008.2
20260506120530 12 193 1.6 4.8 0.00 0.10 0.00 98 1008.4
20260506115530 12 210 0.0 0.0 0.00 0.10 0.00 98 1008.2
20260506114530 12 0.0 0.0 0.00 0.10 0.00 98 1007.9
20260506113531 12 0.0 0.0 0.00 0.10 0.00 98 1007.8
20260506112531 12 300 1.6 3.2 0.00 0.10 0.00 98 1007.4
20260506111552 12 148 1.6 3.2 0.00 0.10 0.00 98 1007.7
20260506110531 12 0.0 0.0 0.00 0.10 0.00 98 1007.8
20260506105532 12 0.0 0.0 0.00 0.10 0.00 98 1007.8
20260506104517 12 303 0.0 3.2 0.00 0.10 0.00 98 1007.7
20260506103517 11 0.0 0.0 0.00 0.10 0.00 98 1007.4
20260506102517 11 150 1.6 3.2 0.00 0.18 0.00 98 1007.5
20260506101517 11 0.0 0.0 0.00 0.20 0.00 97 1007.4
20260506100517 11 0.0 0.0 0.00 0.20 0.00 97 1007.3
20260506095516 11 128 0.0 1.6 0.00 0.20 0.00 97 1007.2
20260506094517 11 0.0 0.0 0.00 0.20 0.00 97 1007.2
20260506093518 11 0.0 0.0 0.00 0.20 0.00 97 1007.3
20260506092538 11 0.0 0.0 0.00 0.20 0.00 96 1007.2
20260506091518 11 0.0 0.0 0.00 0.20 0.00 96 1007.3
20260506090518 11 0.0 0.0 0.00 0.20 0.00 96 1007.3
20260506085517 11 0.0 0.0 0.00 0.20 0.00 96 1007.3
20260506084517 12 0.0 0.0 0.00 0.20 0.00 95 1007.5
20260506083518 12 0.0 0.0 0.00 0.20 0.00 95 1007.6
20260506082517 12 0.0 0.0 0.00 0.20 0.00 95 1007.8
20260506081518 12 0.0 0.0 0.00 0.20 0.00 95 1007.8
20260506080538 12 151 1.6 3.2 0.00 0.20 0.00 95 1007.9
20260506072517 12 228 4.8 8.0 0.00 0.20 0.00 94 1008.2
20260506071517 12 37 3.2 8.0 0.00 0.20 0.00 95 1008.2
20260506070519 12 242 6.4 8.0 0.00 0.20 0.00 95 1008.2
20260506061518 13 22 3.2 6.4 0.00 0.20 0.00 97 1008.7
20260506060558 13 202 1.6 4.8 0.00 0.20 0.00 97 1008.7
20260506050519 15 206 1.6 1.6 0.00 0.20 0.00 97 1008.7
20260506044520 15 13 3.2 4.8 0.00 0.20 0.00 97 1009.0
20260506043520 15 139 1.6 3.2 0.00 0.20 0.00 97 1009.0
20260506042540 15 15 3.2 4.8 0.00 0.20 0.00 96 1009.2
20260506041517 15 13 0.0 3.2 0.00 0.20 0.00 96 1008.6
20260506040517 15 157 1.6 3.2 0.00 0.20 0.00 96 1008.7
20260506035517 15 103 0.0 3.2 0.00 0.20 0.20 96 1008.5
20260506034517 15 55 0.0 1.6 0.00 0.20 0.20 96 1008.6
20260506033520 15 60 0.0 1.6 0.00 0.20 0.20 96 1008.5
20260506032540 15 20 1.6 4.8 0.00 0.20 0.20 97 1008.4
20260506031518 15 16 3.2 4.8 0.00 0.20 0.20 97 1008.6
20260506030518 15 44 1.6 3.2 0.00 0.20 0.20 97 1008.4
20260506025518 16 342 1.6 4.8 0.08 0.20 0.20 96 1008.2
20260506024518 16 82 0.0 1.6 0.08 0.20 0.20 95 1008.0
20260506023519 16 0.0 0.0 0.08 0.20 0.20 95 1007.8
20260506022518 16 102 1.6 3.2 0.08 0.20 0.20 94 1008.0
20260506021518 16 79 1.6 3.2 0.08 0.20 0.20 93 1008.0
20260506020519 16 217 0.0 3.2 0.08 0.18 0.18 92 1007.9